Погода Ханты-Мансийск

Хотите узнать прогноз погоды Ханты-Мансийск? Тогда Вам сюда: Погода Ханты-Мансийск

Поиск расширенной информации на нашем сайте:

Полезная информация:

Новости сайта



02.01.2020
Опубликован Долгосрочный прогноз погоды по городам России и ближнего зарубежья на январь 2020 года.
Карты: Прогноз на январь и февраль 2020 года, Сравнение прогнозируемой аномалии приземной температуры воздуха на январь 2020 года по разным моделям.




Погода Ханты-Мансийск - сегодня

Время (UTC), дата Ветер
(°,м/с) 
Видим.   Явления Облачность Т
(°С)
Тd
(°С)
f(%) Тe
(°С)
Pmin
(гПа)
dP
(гПа)
Po
(мм)
O2
(г/м3)
Тmin Tmax R s Состояние
почвы
00 16.01.22 130 (ЮВ) 10 км  слаб. снег  10/10 1000 м 
[Ns]
-12.7 -14.6 86 -16  989.9  -1.7  738  313           
03 16.01.22 150 (ЮВ) 4000 м  слаб. снег  10/8 1000 м верхняя 
[Sc|Cs]
-12.4 -14.3 86 -14  991.1  1.2  739  313  -13.8    75  равномерный
сухой снег
100% 
06 16.01.22 160 (Ю) 4000 м  слаб. снег  10/10 1000 м 
[Sc]
-10.5 -12.1 88 -12  992.5  1.5  740  311           
09 16.01.22 150 (ЮВ) 10 км  слаб. снег  10/10 1000 м 
[Sc]
-7.3 -8.7 90 -10  992.7  0.2  740  307           
12 16.01.22 130 (ЮВ) 10 км  {снег}  10/10 1000 м 
[Sc]
-5.1 -6.5 90 -6  992.3  -0.4  740  305           
15 16.01.22 100 (В) 4000 м  слаб. снег  10/10 1000 м 
[Sc]
-4.7 -5.7 93 -6  990.7  -1.6  739  304    -4.6  0.6     
18 16.01.22 080 (В) 2000 м  слаб. снег  10/10 300 м 
[Ns]
-4.6 -5.6 93 -7  986.2  -4.4  735  302           
21 16.01.22 080 (В) 2000 м  слаб. снег  10/10 300 м 
[Ns]
-5.5 -6.5 93 -8  981.2  -5  732  302           
00 17.01.22 100 (В) 2000 м  слаб. снег  10/10 300 м 
[Ns]
-6.1 -7.2 92 -8  977.6  -3.7  729  301           
03 17.01.22 270 (З) 4000 м  слаб. снег  10/10 300 м 
[Ns]
-7 -8.1 92 -7  976.6  -1  728  302  -7    11  82  равномерный
сухой снег
100% 
06 17.01.22 270 (З) 5-11{11}  10 км  слаб. снег  10/0 средняя 
[As op]
-10.2 -11.8 88 -15  979.3  2.6  730  307  -10.2         
09 17.01.22 260 (З) 5-11{13}  4000 м  слаб. снег  10/0 средняя 
[As op]
-10.8 -12.6 87 -16  984.3  734  309           
12 17.01.22 230 (ЮЗ) 4{12}  10 км  слаб. снег  10/10 1000 м 
[Sc]
-17.4 -19.8 82 -22  990.6  6.1  739  319           
15 17.01.22 230 (ЮЗ) 3{10}  10 км  позёмок{снег}  6/0 верхняя 
[Cs]
-19.4 -22 80 -24  995.3  4.6  742  323    -6.8     
18 17.01.22 220 (ЮЗ) 3{10}  4000 м  слаб. снег  8/0 средняя, верхняя 
[As op|Cs]
-18.7 -21.2 81 -23  997.5  2.2  744  323           
21 17.01.22 200 (Ю) 10 км  {снег}  ясно 
-17.5 -19.8 82 -21  999.8  2.3  745  322           
00 18.01.22 180 (Ю) 10 км  {снег}  ясно 
-18.5 -20.7 83 -23  1001.5  1.7  747  324           
03 18.01.22 170 (Ю) 10 км    4/0 средняя 
[As trans]
-17.9 -20 84 -22  1002.3  0.7  747  324  -19.5      83  равномерный
сухой снег
100% 
06 18.01.22 170 (Ю) 10 км  слаб. снег  10/0 средняя, верхняя 
[As op|Cs]
-15.6 -17.6 85 -18  1002.8  0.6  748  321           
09 18.01.22 190 (Ю) 10 км  в посл. час снег  10/0 средняя 
[Ac und]
-10.4 -11.8 89 -12  1003.5  0.8  748  315           
12 18.01.22 200 (Ю) 10 км  слаб. снег  10/0 средняя 
[As op]
-8 -9.5 89 -11  1004.8  1.4  749  312           
15 18.01.22 210 (ЮЗ) 10 км  слаб. снег{дождь}  10/8 1000 м средняя 
[Sc|As op]
-7.1 -8.8 88 -10  1005.1  1.3  750  311    -7.1  0.2     
18 18.01.22 220 (ЮЗ) 10 км  слаб. снег  10/8 600 м верхняя 
[Sc|Cs]
-6.2 -8.1 86 -9  1006.3  1.2  750  310           
21 18.01.22 220 (ЮЗ) 10 км  позёмок{снег}  8/8 1000 м 
[Sc]
-7.4 -9.2 87 -9  1006.9  0.6  751  312           
00 19.01.22 220 (ЮЗ) 10 км  {снег}  6/3 1000 м верхняя 
[Sc|Cs]
-9 -10.6 88 -12  1007.3  0.4  751  314           
Время (UTC), дата Ветер
(°,м/с) 
Видим.   Явления Облачность Т
(°С)
Тd
(°С)
f(%) Тe
(°С)
Pmin
(гПа)
dP
(гПа)
Po
(мм)
O2
(г/м3)
Тmin Tmax R s Состояние
почвы

Для получения пояснительной информации подведите курсор к названию столбца.

ПОГОДА Ханты-Мансийск - архив

Всё, что Вы хотите узнать о погоде Ханты-Мансийск - удобно и подробно!

Выберите нужную дату (начиная с 1 января 2019* года) и нажмите кнопку "Найти".
Будут отображены архивные сводки погоды по пункту Ханты-Мансийск, начиная с указанной даты.


Отображать данные в формате CSV (для использования в таблицах Excel)


Внимание! Наш архив погоды предназначен исключительно для личного некоммерческого использования в познавательных целях. Если Вам необходимы официальные справки о состоянии погоды (для производственных, юридических, коммерческих и т.п. целей), обращайтесь в органы Росгидромета.

*Примечание: данная дата относится к архиву по метеостанциям СССР (Россия, СНГ, Балтия).
Архив по метеостанциям Зарубежной Европы и Азии (кроме Китая) хранится 10 дней, по другим регионам земного шара (Китай, Африка, Америка, Австралия, Океания) - 1 день.

Ханты-Мансийск - район местоположения метеостанции


Название, широта, долгота, высота метеостанции:
Ханты-Мансийск 61°ш. 69°д. 46 м над ур. моря [Российская Федерация]

Дополнительная информация

В oтличие oт бoльшинства пoгoдных сайтoв мы публикуем пoдрoбную метеoинфoрмацию в детальнoм прoфессиoнальнoм фoрмате.

Характеристики температуры и влажнoсти вoздуха измеряются на высoте 2 м в тени вдали oт зданий и деревьев.
Скoрoсть ветра измеряется на высoте 10 м (на урoвне рoста челoвека скoрoсть ветра ниже в 1.5-2 раза). Если метеoстанция нахoдится в гoрoде или в лесу, тo скoрoсть ветра занижена на 2-4 м/с пo сравнению с oткрытым местoм. Скoрoсть ветра над акватoриями крупных рек и oзёр, а также на вершинах хoлмoв на 2-5 м/с выше, чем в oбычных услoвиях.
Атмoсфернoе давление в разных тoчках местнoсти мoжет значительнo oтличаться oт давления на метеoстанции, в зависимoсти oт услoвий рельефа (при пoдъёме на 10 м давление пoнижается примернo на 1 мм рт.ст.).